PAL1806 RPLL-RPVM

Flight info

Callsign PAL1806
Flight time N/A
Altitude 39000
Route IPATA2R IPATA W25 BATAY BATAY3P
Aircraft A359/H-SDE2E3GHIJ3J4J5LM1ORWXY/LB1D1

Departure

Time 2026-05-05 06:43
Airport Ninoy Aquino International Airport (RPLL)

Arrival

Time N/A
Airport Mactan Cebu International Airport (RPVM)
Time Latitude Longitude Altitude Speed Heading
2026-05-05 06:06 14.51075 121.01368 64 ft 0 kts 221°
2026-05-05 06:07 14.51032 121.01414 64 ft 0 kts 225°
2026-05-05 06:30 14.51044 121.01426 64 ft 2 kts 223°
2026-05-05 06:30 14.51056 121.01437 64 ft 2 kts 219°
2026-05-05 06:30 14.51069 121.01447 67 ft 2 kts 211°
2026-05-05 06:31 14.51084 121.01455 64 ft 2 kts 187°
2026-05-05 06:31 14.51099 121.01451 64 ft 2 kts 139°
2026-05-05 06:31 14.51103 121.01449 64 ft 0 kts 135°
2026-05-05 06:35 14.51100 121.01451 64 ft 3 kts 135°
2026-05-05 06:35 14.51063 121.01490 64 ft 10 kts 134°
2026-05-05 06:35 14.51007 121.01548 64 ft 13 kts 135°
2026-05-05 06:35 14.50941 121.01617 64 ft 15 kts 134°
2026-05-05 06:36 14.50863 121.01646 68 ft 10 kts 200°
2026-05-05 06:36 14.50820 121.01590 66 ft 10 kts 238°
2026-05-05 06:36 14.50780 121.01518 64 ft 13 kts 240°
2026-05-05 06:36 14.50731 121.01432 70 ft 15 kts 240°
2026-05-05 06:37 14.50676 121.01332 64 ft 17 kts 240°
2026-05-05 06:37 14.50612 121.01219 65 ft 19 kts 240°
2026-05-05 06:37 14.50542 121.01091 68 ft 22 kts 240°
2026-05-05 06:37 14.50463 121.00951 67 ft 24 kts 240°
2026-05-05 06:38 14.50378 121.00797 64 ft 26 kts 240°
2026-05-05 06:38 14.50285 121.00631 65 ft 27 kts 240°
2026-05-05 06:38 14.50187 121.00455 63 ft 29 kts 240°
2026-05-05 06:38 14.50086 121.00272 64 ft 30 kts 240°
2026-05-05 06:39 14.49986 121.00094 67 ft 22 kts 240°
2026-05-05 06:39 14.49938 121.00007 65 ft 8 kts 240°
2026-05-05 06:39 14.49914 120.99976 67 ft 0 kts 220°
2026-05-05 06:40 14.49913 120.99975 67 ft 2 kts 219°
2026-05-05 06:40 14.49885 120.99970 66 ft 7 kts 174°
2026-05-05 06:40 14.49826 120.99998 67 ft 12 kts 142°
2026-05-05 06:41 14.49818 121.00065 67 ft 10 kts 63°
2026-05-05 06:41 14.49849 121.00122 68 ft 0 kts 60°
2026-05-05 06:42 14.49871 121.00162 64 ft 28 kts 61°
2026-05-05 06:42 14.49998 121.00393 63 ft 80 kts 60°
2026-05-05 06:43 14.50392 121.01101 66 ft 145 kts 59°
2026-05-05 06:43 14.50956 121.02086 598 ft 157 kts 59°
2026-05-05 06:43 14.51524 121.03062 1277 ft 168 kts 62°
2026-05-05 06:43 14.52143 121.04200 1624 ft 195 kts 62°
2026-05-05 06:44 14.52839 121.05484 2002 ft 212 kts 62°
2026-05-05 06:44 14.53582 121.06838 2589 ft 224 kts 62°
2026-05-05 06:44 14.54392 121.08307 2993 ft 247 kts 61°
2026-05-05 06:44 14.55263 121.09883 3666 ft 256 kts 61°
2026-05-05 06:45 14.56154 121.11489 4472 ft 260 kts 61°
2026-05-05 06:45 14.56999 121.13150 5307 ft 265 kts 69°
2026-05-05 06:45 14.57436 121.14996 6119 ft 266 kts 82°
2026-05-05 06:45 14.57667 121.16904 6710 ft 268 kts 84°
2026-05-05 06:46 14.57872 121.18838 7436 ft 274 kts 84°
2026-05-05 06:46 14.58080 121.20771 8348 ft 275 kts 84°
2026-05-05 06:46 14.58295 121.22745 9215 ft 278 kts 84°
2026-05-05 06:46 14.58323 121.24778 10038 ft 281 kts 99°
2026-05-05 06:47 14.57667 121.26697 10661 ft 294 kts 121°
2026-05-05 06:47 14.56241 121.28261 10963 ft 316 kts 141°
2026-05-05 06:47 14.54390 121.29673 11263 ft 336 kts 143°
2026-05-05 06:47 14.52495 121.31075 11850 ft 342 kts 143°
2026-05-05 06:48 14.50518 121.32556 12447 ft 350 kts 142°
2026-05-05 06:48 14.48552 121.34042 13210 ft 351 kts 142°
2026-05-05 06:48 14.46591 121.35532 13789 ft 358 kts 143°
2026-05-05 06:48 14.44572 121.37073 14311 ft 363 kts 142°
2026-05-05 06:49 14.42532 121.38633 14864 ft 368 kts 143°
2026-05-05 06:49 14.40465 121.40214 15418 ft 372 kts 143°
2026-05-05 06:49 14.38378 121.41811 16021 ft 374 kts 143°
2026-05-05 06:49 14.36281 121.43416 16573 ft 377 kts 143°
2026-05-05 06:50 14.34852 121.44509 16959 ft 379 kts 143°
2026-05-05 06:50 14.33449 121.45579 17390 ft 379 kts 144°